Montauk, NY

6:15 AM EDT on July 27, 2017 (GMT -0400)
Montauk

Weather History for KMTP - December, 2012

Change the Weather History Date:

Saturday, December 15, 2012

  Actual Average (KHTO) Record (KHTO)
Temperature  
Mean Temperature 37 °F -  
Max Temperature 44 °F 44 °F 59 °F (2008)
Min Temperature 30 °F 28 °F 7 °F (1989)
Degree Days  
Heating Degree Days 28    
Moisture  
Dew Point 29 °F    
Average Humidity 64    
Maximum Humidity 79    
Minimum Humidity 53    
Precipitation  
Precipitation 0.00 in - - ()
Sea Level Pressure  
Sea Level Pressure 30.28 in    
Wind  
Wind Speed 6 mph (North)    
Max Wind Speed 10 mph    
Max Gust Speed -    
Averages and records for this station are not official NWS values.
T = Trace of Precipitation, MM = Missing Value Source: NWS Daily Summary

Daily Weather History Graph

Daily Weather History Graph

Search for Another Location

Airport or City:

Trip Planner

Search our weather history database for the weather conditions in past years. The results will help you decide how hot, cold, wet, or windy it might be!

Date:

Astronomy

Dec. 15, 2012 Rise Set
Actual Time 7:06 AM EST 4:20 PM EST
Civil Twilight 6:34 AM EST 4:51 PM EST
Nautical Twilight 6:00 AM EST 5:25 PM EST
Astronomical Twilight 5:26 AM EST 5:59 PM EST
Moon 8:55 AM EST (12/15) 7:21 PM EST (12/15)
Length of Visible Light 10h 16m
Length of Day
9h 14m
Waxing Crescent, 8% of the Moon is Illuminated
Dec 15
Waxing Crescent
Dec 20
First Quarter
Dec 28
Full
Jan 4
Last Quarter
Jan 11
New

Hourly Weather History & Observations

Time (EST) Temp. Windchill Dew Point Humidity Pressure Visibility Wind Dir Wind Speed Gust Speed Precip Events Conditions
12:54 AM 44.1 °F 40.1 °F 30.0 °F 58% 30.22 in - NW 6.9 mph - N/A   Unknown
1:54 AM 43.0 °F 39.5 °F 28.9 °F 58% 30.23 in - NW 5.8 mph - N/A   Unknown
3:54 AM 43.0 °F 37.7 °F 30.0 °F 60% 30.24 in - NW 9.2 mph - N/A   Unknown
4:54 AM 43.0 °F 38.2 °F 30.0 °F 60% 30.25 in - NW 8.1 mph - N/A   Unknown
5:54 AM 42.1 °F 36.1 °F 30.9 °F 65% 30.27 in - NW 10.4 mph - N/A   Unknown
7:54 AM 42.1 °F 37.1 °F 30.9 °F 65% 30.29 in - NNW 8.1 mph - N/A   Unknown
8:54 AM 43.0 °F 38.2 °F 30.9 °F 62% 30.30 in - North 8.1 mph - N/A   Unknown
10:54 AM 44.1 °F 40.1 °F 28.9 °F 55% 30.31 in - NNE 6.9 mph - N/A   Unknown
11:54 AM 44.1 °F 40.8 °F 28.0 °F 53% 30.30 in - NNE 5.8 mph - N/A   Unknown
12:54 PM 44.1 °F 41.5 °F 28.9 °F 55% 30.28 in - Variable 4.6 mph - N/A   Unknown
1:54 PM 44.1 °F - 28.9 °F 55% 30.27 in - Calm Calm - N/A   Unknown
2:54 PM 44.1 °F - 28.9 °F 55% 30.27 in - Calm Calm - N/A   Unknown
3:54 PM 42.1 °F - 28.9 °F 60% 30.28 in - Calm Calm - N/A   Unknown
4:54 PM 36.0 °F - 26.1 °F 67% 30.28 in - Calm Calm - N/A   Unknown
5:54 PM 32.0 °F - 24.1 °F 73% 30.28 in - Calm Calm - N/A   Unknown
6:54 PM 30.9 °F 27.5 °F 25.0 °F 79% 30.29 in - East 3.5 mph - N/A   Unknown
7:54 PM 34.0 °F - 28.0 °F 79% 30.30 in - Calm Calm - N/A   Unknown
8:54 PM 35.1 °F 32.2 °F 28.0 °F 76% 30.29 in - East 3.5 mph - N/A   Unknown
10:54 PM 42.1 °F 39.2 °F 32.0 °F 67% 30.29 in - East 4.6 mph - N/A   Unknown
11:54 PM 42.1 °F 39.2 °F 33.1 °F 70% 30.28 in - East 4.6 mph - N/A   Unknown